CW9451 Weather Reports


Display with metric or nautical units.
time (UTC)temp
F
wind
direction
speed
MPH
gust
MPH
rain 1hr
in
rain 24hr
in
rain mn
in
humidity
%
barometer
mb
20260904231905 61 0.0 0.0 0.00 0.00 0.00 10 1015.9
20260904230909 61 0.0 0.0 0.00 0.00 0.00 10 1015.9
20260904224903 61 0.0 0.0 0.00 0.00 0.00 10 1015.8
20260904223904 62 0.0 0.0 0.00 0.00 0.00 10 1016.1
20260904222905 62 0.0 0.0 0.00 0.00 0.00 10 1016.1
20260904221904 62 0.0 0.0 0.00 0.00 0.00 10 1015.8
20260904220904 62 0.0 0.0 0.00 0.00 0.00 10 1015.4
20260904215908 62 0.0 0.0 0.00 0.00 0.00 10 1015.4
20260904213905 62 0.0 0.0 0.00 0.00 0.00 10 1015.1
20260904212905 62 0.0 0.0 0.00 0.00 0.00 10 1015.0
20260904211904 62 0.0 0.0 0.00 0.00 0.00 10 1014.7
20260904210904 62 0.0 0.0 0.00 0.00 0.00 10 1014.5
20260904205904 62 0.0 0.0 0.00 0.00 0.00 10 1014.3
20260904204909 63 0.0 0.0 0.00 0.00 0.00 10 1014.4
20260904202905 63 0.0 0.0 0.00 0.00 0.00 10 1014.3
20260904201909 63 0.0 0.0 0.00 0.00 0.00 10 1014.1
20260904195904 63 0.0 0.0 0.00 0.00 0.00 10 1014.1
20260904194909 63 0.0 0.0 0.00 0.00 0.00 10 1014.2
20260904191903 63 0.0 0.0 0.00 0.00 0.00 10 1013.7
20260904190904 63 0.0 0.0 0.00 0.00 0.00 10 1013.8
20260904185909 63 0.0 0.0 0.00 0.00 0.00 10 1013.8
20260904183905 64 0.0 0.0 0.00 0.00 0.00 10 1013.1
20260904182904 64 0.0 0.0 0.00 0.00 0.00 10 1013.2
20260904181905 64 0.0 0.0 0.00 0.00 0.00 10 1013.2
20260904180904 64 0.0 0.0 0.00 0.00 0.00 10 1012.9
20260904175908 64 0.0 0.0 0.00 0.00 0.00 10 1012.6
20260904173905 65 0.0 0.0 0.00 0.00 0.00 10 1012.1
20260904172904 64 0.0 0.0 0.00 0.00 0.00 10 1012.4
20260904171909 64 0.0 0.0 0.00 0.00 0.00 10 1012.2
20260904165904 65 0.0 0.0 0.00 0.00 0.00 10 1011.9
20260904164904 66 0.0 0.0 0.00 0.00 0.00 10 1011.5
20260904163909 66 0.0 0.0 0.00 0.00 0.00 10 1011.5
20260904161905 67 0.0 0.0 0.00 0.00 0.00 10 1011.3
20260904160904 68 0.0 0.0 0.00 0.00 0.00 10 1010.5
20260904155904 68 0.0 0.0 0.00 0.00 0.00 10 1010.3
20260904154903 68 0.0 0.0 0.00 0.00 0.00 10 1010.0
20260904153908 68 0.0 0.0 0.00 0.00 0.00 10 1010.1
20260904150904 70 0.0 0.0 0.00 0.00 0.00 94 1010.2
20260904145909 71 0.0 0.0 0.00 0.00 0.00 93 1009.9
20260904143909 73 0.0 0.0 0.00 0.00 0.00 86 1009.7
20260904141905 76 0.0 0.0 0.00 0.00 0.00 81 1009.7
20260904140904 76 0.0 0.0 0.00 0.00 0.00 81 1009.8
20260904135908 76 0.0 0.0 0.00 0.00 0.00 81 1009.7
20260904133904 77 0.0 0.0 0.00 0.00 0.00 82 1009.7
20260904132905 76 0.0 0.0 0.00 0.00 0.00 85 1009.6
20260904131905 76 0.0 0.0 0.00 0.00 0.00 85 1009.7
20260904130905 76 0.0 0.0 0.00 0.00 0.00 88 1009.7
20260904125904 76 0.0 0.0 0.00 0.00 0.00 88 1010.0
20260904124908 75 0.0 0.0 0.00 0.00 0.00 90 1010.1
20260904122904 75 0.0 0.0 0.00 0.00 0.00 91 1010.5
20260904121904 74 0.0 0.0 0.00 0.00 0.00 94 1010.3
20260904120903 74 0.0 0.0 0.00 0.00 0.00 96 1010.3
20260904115904 75 0.0 0.0 0.00 0.00 0.00 96 1010.3
20260904114904 74 0.0 0.0 0.00 0.00 0.00 99 1010.5
20260904113904 73 0.0 0.0 0.00 0.00 0.00 10 1010.7
20260904112903 72 0.0 0.0 0.00 0.00 0.00 10 1011.0
20260904111908 72 0.0 0.0 0.00 0.00 0.00 10 1011.2
20260904104904 72 0.0 0.0 0.00 0.00 0.00 10 1011.5
20260904103905 71 0.0 0.0 0.00 0.00 0.00 10 1011.6
20260904102909 70 0.0 0.0 0.00 0.00 0.00 10 1011.6
20260904095904 70 0.0 0.0 0.00 0.00 0.00 10 1011.9
20260904094903 70 0.0 0.0 0.00 0.00 0.00 10 1012.2
20260904093903 69 0.0 0.0 0.00 0.00 0.00 10 1012.2
20260904092904 69 0.0 0.0 0.00 0.00 0.00 10 1012.4
20260904091905 69 0.0 0.0 0.00 0.00 0.00 10 1012.5
20260904090909 69 0.0 0.0 0.00 0.00 0.00 10 1012.7
20260904084905 68 0.0 0.0 0.00 0.00 0.00 10 1013.0
20260904083904 68 0.0 0.0 0.00 0.00 0.00 10 1012.9
20260904082904 68 0.0 0.0 0.00 0.00 0.00 10 1013.1
20260904081909 68 0.0 0.0 0.00 0.00 0.00 10 1013.1
20260904074904 68 0.0 0.0 0.00 0.00 0.00 10 1013.6
20260904073908 68 0.0 0.0 0.00 0.00 0.00 10 1013.4
20260904071903 68 0.0 0.0 0.00 0.00 0.00 10 1013.6
20260904070903 67 0.0 0.0 0.00 0.00 0.00 10 1013.9
20260904065904 67 0.0 0.0 0.00 0.00 0.00 10 1014.0
20260904064904 67 0.0 0.0 0.00 0.00 0.00 10 1014.1
20260904063904 67 0.0 0.0 0.00 0.00 0.00 10 1014.3
20260904062904 66 0.0 0.0 0.00 0.00 0.00 10 1014.5
20260904061905 66 0.0 0.0 0.00 0.00 0.00 10 1014.6
20260904060904 66 0.0 0.0 0.00 0.00 0.00 10 1014.4
20260904055904 66 0.0 0.0 0.00 0.00 0.00 10 1014.5
20260904054909 66 0.0 0.0 0.00 0.00 0.00 10 1014.6
20260904052904 66 0.0 0.0 0.00 0.00 0.00 10 1014.9
20260904051904 65 0.0 0.0 0.00 0.00 0.00 10 1015.1
20260904050908 65 0.0 0.0 0.00 0.00 0.00 10 1015.0
20260904044909 65 0.0 0.0 0.00 0.00 0.00 10 1015.0
20260904042905 65 0.0 0.0 0.00 0.00 0.00 10 1015.2
20260904041904 65 0.0 0.0 0.00 0.00 0.00 10 1015.3
20260904040904 65 0.0 0.0 0.00 0.00 0.00 10 1015.5
20260904035905 65 0.0 0.0 0.00 0.00 0.00 10 1015.5
20260904034904 65 0.0 0.0 0.00 0.00 0.00 10 1015.7
20260904033905 65 0.0 0.0 0.00 0.00 0.00 10 1015.8
20260904032908 65 0.0 0.0 0.00 0.00 0.00 10 1016.0
20260904030905 65 0.0 0.0 0.00 0.00 0.00 10 1016.1
20260904025904 65 0.0 0.0 0.00 0.00 0.00 10 1016.3
20260904024909 65 0.0 0.0 0.00 0.00 0.00 10 1016.4
20260904022904 65 0.0 0.0 0.00 0.00 0.00 10 1016.6
20260904021904 64 0.0 0.0 0.00 0.00 0.00 10 1016.8
20260904020904 64 0.0 0.0 0.00 0.00 0.00 10 1016.8
20260904015904 64 0.0 0.0 0.00 0.00 0.00 10 1016.9
20260904014905 64 0.0 0.0 0.00 0.00 0.00 10 1017.0
20260904013905 64 0.0 0.0 0.00 0.00 0.00 10 1016.9
20260904012904 64 0.0 0.0 0.00 0.00 0.00 10 1017.0
20260904011905 64 0.0 0.0 0.00 0.00 0.00 10 1017.3
20260904010904 64 0.0 0.0 0.00 0.00 0.00 10 1017.5
20260904005904 64 0.0 0.0 0.00 0.00 0.00 10 1017.4
20260904004904 64 0.0 0.0 0.00 0.00 0.00 10 1017.4
20260904003904 64 0.0 0.0 0.00 0.00 0.00 10 1017.5
20260904002909 64 0.0 0.0 0.00 0.00 0.00 10 1017.6
20260904000908 64 0.0 0.0 0.00 0.00 0.00 10 1017.8
20260903234905 65 0.0 0.0 0.00 0.00 0.00 10 1018.3
20260903233904 64 0.0 0.0 0.00 0.00 0.00 10 1018.4
20260903232904 65 0.0 0.0 0.00 0.00 0.00 10 1018.3